{"data":{"norad_id":56300,"epoch":"2026-05-25T00:45:53.819424Z","epoch_age_seconds":72407,"freshness":"FRESH","line1":"1 56300U 23056Q   26145.03187291  .00000879  00000+0  41468-4 0  9999","line2":"2 56300  43.0039 137.9386 0001367 277.1020  82.9676 15.27574552171772","mean_motion":15.27574552,"eccentricity":0.0001367,"inclination_deg":43.0039,"raan_deg":137.9386,"arg_perigee_deg":277.102,"mean_anomaly_deg":82.9676,"bstar":4.1468e-5,"rev_number":17177,"period_min":94.267084910171,"perigee_km":482.12748299069,"apogee_km":484.0033357294,"semimajor_km":6861.20240936,"source":"CELESTRAK","updated_at":"2026-05-25T13:38:17.966989Z"}}